User: anonymous   Login
Location: Newark
(35.2161°N, 26.1013°E)
Time: 17:46:28
(UTC+00:00)
Language:

DX 1 - Orbit

View from above orbital plane
View from above orbital plane
View from above satellite
View from above satellite

Ground track
Ground track

The orbit data is extracted from the following two-line orbital elements,

1 40071U 14037C   20025.50741637  .00000080  00000-0  17782-4 0  9996
2 40071  98.4464 196.0236 0007369 234.3549 125.6989 14.81327859299942
Epoch (UTC): 25 January 2020 12:10:40
Eccentricity: 0.0007369
inclination: 98.4464°
perigee height: 620 km
apogee height: 630 km
right ascension of ascending node: 196.0236°
argument of perigee: 234.3549°
revolutions per day: 14.81327859
mean anomaly at epoch: 125.6989°
orbit number at epoch: 29994

The dashed part of the orbit path shows where the satellite is in the earth's shadow,  

DLR